User: anonymous   Login
Location: Wien
(48.2082°N, 16.3738°E)
Time: 05:34:52
(UTC+02:00)
Language:

NOAA 18 - Orbit

View from above orbital plane
View from above orbital plane
View from above satellite
View from above satellite

Ground track
Ground track

The orbit data is extracted from the following two-line orbital elements,

1 28654U 05018A   24106.83264649  .00000385  00000-0  22962-3 0  9994
2 28654  98.8756 184.3136 0013452 236.9930 122.9949 14.13167709974457
Epoch (UTC): 15 April 2024 19:59:00
Eccentricity: 0.0013452
inclination: 98.8756°
perigee height: 839 km
apogee height: 858 km
right ascension of ascending node: 184.3136°
argument of perigee: 236.9930°
revolutions per day: 14.13167709
mean anomaly at epoch: 122.9949°
orbit number at epoch: 97445

The dashed part of the orbit path shows where the satellite is in the earth's shadow,  

DLR